Tracking 27079 objects as of 24-Mar-2023
HD Live streaming from Space Station
objects crossing your sky now

ARIANE 1 DEB

Track ARIANE 1 DEB now!
10-day predictions


NORAD ID: 39107
Int'l Code: 1986-019VV
Perigee: 761.4 km
Apogee: 990.3 km
Inclination: 98.8 °
Period: 102.3 minutes
Semi major axis: 7246 km
RCS: 0.0163 m2 (small)
Launch date: February 22, 1986
Source: France (FR)
Launch site: FRENCH GUIANA (FRGUI)

Note: This is SATELLITE DEBRIS
Your satellite tracking list
Your tracking list is empty




NASA's NSSDC Master Catalog

Two Line Element Set (TLE):
1 39107U 86019VV  23082.86077183  .00002048  00000-0  11112-2 0  9991
2 39107  98.7679 129.1142 0157906 111.9587 249.8448 14.07276610922307
Source of the keplerian elements: AFSPC